TimeEST,TemperatureF,Dew PointF,Humidity,Sea Level PressureIn,VisibilityMPH,Wind Direction,Wind SpeedMPH,Gust SpeedMPH,PrecipitationIn,Events,Conditions,WindDirDegrees,DateUTC
12:15 AM,22.8,13.8,68,30.29,10.0,West,8.1,-,N/A,,Overcast,280,2013-12-24 05:15:00
12:35 AM,22.3,12.6,66,30.29,10.0,West,12.7,17.3,N/A,,Overcast,270,2013-12-24 05:35:00
12:55 AM,21.6,10.4,62,30.29,10.0,West,13.8,19.6,N/A,,Overcast,270,2013-12-24 05:55:00
1:15 AM,20.8,9.5,62,30.29,10.0,West,11.5,18.4,N/A,,Overcast,260,2013-12-24 06:15:00
1:35 AM,20.7,9.9,63,30.29,10.0,West,12.7,-,N/A,,Overcast,260,2013-12-24 06:35:00
1:55 AM,20.3,9.5,63,30.29,10.0,West,9.2,-,N/A,,Overcast,260,2013-12-24 06:55:00
2:14 AM,19.8,9.9,65,30.30,10.0,West,8.1,17.3,N/A,Snow,Light Snow,260,2013-12-24 07:14:00
2:35 AM,19.4,10.4,68,30.30,10.0,West,8.1,-,N/A,Snow,Light Snow,260,2013-12-24 07:35:00
2:55 AM,19.2,11.1,71,30.31,7.0,West,4.6,-,N/A,Snow,Light Snow,260,2013-12-24 07:55:00
3:15 AM,18.5,11.5,74,30.31,4.0,West,10.4,-,N/A,Snow,Light Snow,260,2013-12-24 08:15:00
3:35 AM,18.3,12.2,77,30.32,4.0,West,11.5,-,N/A,Snow,Light Snow,260,2013-12-24 08:35:00
3:55 AM,17.6,13.1,83,30.31,2.5,West,9.2,-,N/A,Snow,Light Snow,260,2013-12-24 08:55:00
4:15 AM,17.6,13.1,83,30.32,3.0,West,8.1,-,N/A,Snow,Light Snow,260,2013-12-24 09:15:00
4:34 AM,17.4,13.5,84,30.31,2.5,West,8.1,-,N/A,Snow,Light Snow,260,2013-12-24 09:34:00
4:55 AM,17.4,12.6,81,30.31,3.0,West,17.3,21.9,N/A,Snow,Light Snow,270,2013-12-24 09:55:00
5:15 AM,17.1,11.1,77,30.32,7.0,West,12.7,18.4,N/A,Snow,Light Snow,270,2013-12-24 10:15:00
5:35 AM,17.1,11.1,77,30.32,7.0,West,10.4,-,N/A,Snow,Light Snow,270,2013-12-24 10:35:00
5:55 AM,16.7,10.9,78,30.32,10.0,WNW,11.5,-,N/A,,Overcast,290,2013-12-24 10:55:00
6:14 AM,16.7,12.2,82,30.33,5.0,West,8.1,-,N/A,Snow,Light Snow,270,2013-12-24 11:14:00
6:35 AM,16.2,11.3,81,30.34,7.0,West,9.2,16.1,N/A,Snow,Light Snow,270,2013-12-24 11:35:00
6:55 AM,15.4,11.1,83,30.35,4.0,West,8.1,-,N/A,Snow,Light Snow,270,2013-12-24 11:55:00
7:14 AM,15.6,10.9,82,30.35,4.0,WNW,8.1,-,N/A,Snow,Light Snow,300,2013-12-24 12:14:00
7:35 AM,14.4,9.5,81,30.37,4.0,NW,9.2,-,N/A,Snow,Light Snow,310,2013-12-24 12:35:00
7:54 AM,14.0,8.6,79,30.38,7.0,WNW,6.9,-,N/A,Snow,Light Snow,290,2013-12-24 12:54:00
8:15 AM,12.9,7.5,79,30.38,5.0,WNW,11.5,-,N/A,Snow,Light Snow,290,2013-12-24 13:15:00
8:34 AM,12.7,7.3,79,30.39,7.0,WNW,9.2,16.1,N/A,,Overcast,300,2013-12-24 13:34:00
8:55 AM,12.0,5.9,76,30.40,10.0,West,11.5,-,N/A,,Overcast,280,2013-12-24 13:55:00
9:14 AM,11.3,5.4,77,30.41,10.0,WNW,11.5,-,N/A,,Mostly Cloudy,300,2013-12-24 14:14:00
9:35 AM,11.3,5.5,78,30.42,10.0,WNW,6.9,11.5,N/A,Snow,Light Snow,300,2013-12-24 14:35:00
9:54 AM,11.7,5.4,76,30.43,10.0,WNW,12.7,19.6,N/A,,Scattered Clouds,300,2013-12-24 14:54:00
10:15 AM,12.2,5.4,74,30.43,4.0,WNW,11.5,-,N/A,,Haze,290,2013-12-24 15:15:00
10:34 AM,12.9,4.8,70,30.44,10.0,WNW,12.7,-,N/A,,Clear,300,2013-12-24 15:34:00
10:55 AM,13.6,4.8,68,30.44,10.0,WNW,13.8,-,N/A,,Clear,290,2013-12-24 15:55:00
11:14 AM,14.7,5.2,66,30.44,10.0,WNW,12.7,-,N/A,,Clear,290,2013-12-24 16:14:00
11:35 AM,15.8,4.8,62,30.43,10.0,WNW,12.7,17.3,N/A,,Clear,290,2013-12-24 16:35:00
11:55 AM,16.3,5.2,62,30.43,10.0,WNW,9.2,-,N/A,,Clear,290,2013-12-24 16:55:00
12:15 PM,16.7,5.2,61,30.43,10.0,WNW,12.7,20.7,N/A,,Clear,300,2013-12-24 17:15:00
12:34 PM,17.4,5.4,59,30.44,10.0,WNW,12.7,-,N/A,,Clear,300,2013-12-24 17:34:00
12:54 PM,17.6,5.0,58,30.44,10.0,WNW,8.1,-,N/A,,Clear,300,2013-12-24 17:54:00
1:15 PM,18.0,5.0,57,30.44,10.0,WNW,11.5,-,N/A,,Clear,300,2013-12-24 18:15:00
1:35 PM,17.8,3.9,55,30.44,10.0,NW,11.5,20.7,N/A,,Clear,320,2013-12-24 18:35:00
1:55 PM,18.1,3.9,54,30.45,10.0,WNW,15.0,21.9,N/A,,Clear,300,2013-12-24 18:55:00
2:14 PM,18.1,4.3,55,30.45,10.0,WNW,13.8,-,N/A,,Clear,290,2013-12-24 19:14:00
2:35 PM,17.6,3.6,54,30.45,10.0,NW,11.5,19.6,N/A,,Clear,310,2013-12-24 19:35:00
2:54 PM,17.6,3.7,55,30.47,10.0,NW,15.0,19.6,N/A,,Clear,320,2013-12-24 19:54:00
3:14 PM,17.6,4.3,56,30.47,10.0,NW,13.8,-,N/A,,Clear,310,2013-12-24 20:14:00
3:34 PM,17.4,3.9,56,30.48,10.0,WNW,15.0,21.9,N/A,,Clear,300,2013-12-24 20:34:00
3:55 PM,17.4,4.5,57,30.48,10.0,WNW,12.7,16.1,N/A,,Clear,300,2013-12-24 20:55:00
4:15 PM,17.2,4.6,58,30.50,10.0,WNW,12.7,16.1,N/A,,Clear,290,2013-12-24 21:15:00
4:35 PM,16.5,4.8,60,30.50,10.0,WNW,8.1,16.1,N/A,,Clear,290,2013-12-24 21:35:00
4:55 PM,15.6,3.9,60,30.50,10.0,NW,8.1,-,N/A,,Clear,320,2013-12-24 21:55:00
5:14 PM,15.3,4.1,61,30.51,10.0,NW,6.9,-,N/A,,Clear,310,2013-12-24 22:14:00
5:33 PM,14.9,4.8,64,30.52,10.0,West,8.1,-,N/A,,Clear,280,2013-12-24 22:33:00
5:55 PM,14.7,4.5,64,30.53,10.0,NW,5.8,-,N/A,,Clear,310,2013-12-24 22:55:00
6:13 PM,14.5,4.8,65,30.53,10.0,NW,4.6,-,N/A,,Clear,310,2013-12-24 23:13:00
6:34 PM,14.0,4.1,65,30.54,10.0,WNW,4.6,-,N/A,,Clear,300,2013-12-24 23:34:00
6:53 PM,14.0,4.1,65,30.54,10.0,West,4.6,-,N/A,,Clear,280,2013-12-24 23:53:00
7:14 PM,14.0,4.6,66,30.54,10.0,Calm,Calm,-,N/A,,Clear,0,2013-12-25 00:14:00
7:33 PM,13.6,4.8,68,30.54,10.0,Calm,Calm,-,N/A,,Clear,0,2013-12-25 00:33:00
7:50 PM,13.5,5.0,69,30.55,10.0,Calm,Calm,-,N/A,,Clear,0,2013-12-25 00:50:00